This demonstration page uses our WeatherBlox Daily Observations layout. Learn more.

Left ArrowRight Arrow

36.17497, -115.13722

Hourly Observations for January 8, 2017

Temp ( °F °C ) Dew Point ( °F °C ) Humidity (%) Winds ( mph kmh ) Pressure ( in mb ) Visibility ( mi km ) Precip ( " mm )
12:53 am 00:53 Clear 42 5.6 27 -2.8 55 55 N 5 7 30.4 1030 10 16.0934 0 0
1:53 am 01:53 Cloudy 42 5.6 26 -3.3 53 53 N 6 9 30.4 1030 10 16.0934 0 0
2:53 am 02:53 Cloudy 43 6.1 26 -3.3 51 51 Calm 30.39 1029 10 16.0934 0 0
3:53 am 03:53 Cloudy 43 6.1 28 -2.2 56 56 Calm 30.38 1029 10 16.0934 0 0
4:53 am 04:53 Cloudy 44 6.7 28 -2.2 53 53 Calm 30.39 1029 10 16.0934 0 0
5:53 am 05:53 Cloudy 44 6.7 28 -2.2 53 53 S 5 7 30.39 1029 10 16.0934 0 0
6:53 am 06:53 Cloudy 45 7.2 30 -1.1 56 56 SE 5 7 30.39 1029 10 16.0934 0 0
7:53 am 07:53 Cloudy 45 7.2 30 -1.1 56 56 S 3 6 30.39 1029 10 16.0934 0 0
8:53 am 08:53 Cloudy 47 8.3 31 -0.6 54 54 Calm 30.41 1030 10 16.0934 0 0
9:53 am 09:53 Cloudy 48 8.9 31 -0.6 52 52 SSE 6 9 30.42 1030 10 16.0934 0 0
10:53 am 10:53 Cloudy 49 9.4 31 -0.6 50 50 SE 8 13 30.39 1029 10 16.0934 0 0
11:53 am 11:53 Cloudy 51 10.6 32 0 48 48 SE 6 9 30.35 1028 10 16.0934 0 0
12:53 pm 12:53 Sunny 53 11.7 31 -0.6 43 43 SE 7 11 30.31 1026 10 16.0934 0 0
1:53 pm 13:53 Sunny 54 12.2 32 0 43 43 ESE 8 13 30.28 1025 10 16.0934 0 0
2:53 pm 14:53 Sunny 55 12.8 31 -0.6 40 40 S 7 11 30.26 1025 10 16.0934 0 0
3:53 pm 15:53 Sunny 55 12.8 31 -0.6 40 40 Calm 30.25 1025 10 16.0934 0 0
4:53 pm 16:53 Clear 54 12.2 31 -0.6 42 42 Calm 30.23 1024 10 16.0934 0 0
5:53 pm 17:53 Clear 50 10 32 0 50 50 SE 3 6 30.23 1024 10 16.0934 0 0
6:53 pm 18:53 Clear 51 10.6 33 0.6 50 50 S 3 6 30.21 1023 10 16.0934 0 0
7:53 pm 19:53 Clear 48 8.9 33 0.6 56 56 Calm 30.2 1023 10 16.0934 0 0
8:53 pm 20:53 Clear 48 8.9 33 0.6 56 56 Calm 30.2 1023 10 16.0934 0 0
9:53 pm 21:53 Clear 49 9.4 32 0 52 52 SSW 3 6 30.19 1022 10 16.0934 0 0
10:53 pm 22:53 Clear 46 7.8 33 0.6 61 61 Calm 30.19 1022 10 16.0934 0 0
11:53 pm 23:53 Clear 46 7.8 33 0.6 61 61 Calm 30.16 1021 10 16.0934 0 0

Powered by AerisWeather